FW7504 Weather Reports


time (UTC)temp
C
wind
direction
speed
KPH
gust
KPH
rain 1hr
cm
rain 24hr
cm
rain mn
cm
humidity
%
barometer
mb
20260507113051 13 0 0.0 6.4 0.00 3.99 0.51 94 1013.7
20260507112548 13 0 0.0 6.4 0.00 3.99 0.51 95 1013.3
20260507112050 13 360 0.0 6.4 0.00 3.99 0.51 95 1013.1
20260507111550 13 0 0.0 8.0 0.00 3.99 0.51 95 1013.0
20260507111051 13 360 3.2 9.7 0.00 3.99 0.51 95 1013.0
20260507110551 13 360 1.6 9.7 0.03 3.99 0.51 95 1012.9
20260507110057 13 360 3.2 8.0 0.03 3.99 0.51 95 1013.1
20260507105549 13 360 1.6 8.0 0.03 3.99 0.51 95 1012.9
20260507105051 13 360 1.6 6.4 0.03 3.99 0.51 95 1012.3
20260507104559 13 360 0.0 9.7 0.03 3.99 0.51 94 1013.2
20260507104052 13 360 4.8 12.9 0.03 3.99 0.51 95 1012.8
20260507103553 13 360 1.6 12.9 0.05 3.99 0.51 95 1012.7
20260507103054 14 360 3.2 12.9 0.08 3.99 0.51 95 1012.4
20260507102553 14 360 3.2 6.4 0.10 3.99 0.51 95 1012.5
20260507102056 14 360 1.6 6.4 0.15 3.99 0.51 95 1012.4
20260507101553 14 0 0.0 4.8 0.20 3.99 0.51 95 1012.5
20260507101056 14 0 0.0 4.8 0.25 3.99 0.51 95 1012.7
20260507100552 14 0 1.6 4.8 0.23 3.96 0.48 95 1012.6
20260507100059 14 360 1.6 8.0 0.25 3.96 0.48 95 1012.6
20260507095553 14 0 1.6 8.0 0.25 3.96 0.48 95 1012.6
20260507095053 14 360 0.0 4.8 0.28 3.96 0.48 95 1012.6
20260507094554 14 0 0.0 6.4 0.28 3.96 0.48 95 1012.9
20260507094052 14 0 1.6 6.4 0.36 3.96 0.48 95 1012.8
20260507093553 15 0 1.6 6.4 0.41 3.94 0.46 95 1012.6
20260507093054 15 0 1.6 4.8 0.38 3.91 0.43 95 1013.1
20260507092553 15 0 0.0 6.4 0.36 3.89 0.41 95 1012.9
20260507092053 15 0 0.0 6.4 0.30 3.84 0.36 95 1013.1
20260507091554 15 360 0.0 6.4 0.25 3.78 0.30 95 1013.3
20260507091056 15 0 0.0 12.9 0.20 3.73 0.25 95 1013.4
20260507090553 15 0 1.6 12.9 0.20 3.73 0.25 95 1012.8
20260507085553 15 360 0.0 14.5 0.18 3.71 0.23 95 1011.9
20260507085054 15 360 3.2 14.5 0.15 3.68 0.20 95 1012.2
20260507084555 15 360 0.0 9.7 0.15 3.68 0.20 95 1012.2
20260507084052 15 360 3.2 9.7 0.08 3.61 0.13 94 1012.3
20260507083556 15 360 0.0 9.7 0.00 3.53 0.05 94 1013.5
20260507083055 16 360 3.2 9.7 0.00 3.53 0.05 94 1013.1
20260507082553 16 0 3.2 12.9 0.00 3.53 0.05 94 1012.7
20260507082053 16 360 3.2 12.9 0.00 3.53 0.05 95 1012.6
20260507081556 16 360 0.0 3.2 0.00 3.53 0.05 96 1012.6
20260507081057 16 0 0.0 0.0 0.00 3.53 0.05 96 1012.4
20260507080553 16 0 0.0 0.0 0.00 3.53 0.05 96 1012.4
20260507080107 16 0 0.0 0.0 0.00 3.53 0.05 96 1012.6
20260507075553 16 0 0.0 0.0 0.00 3.53 0.05 96 1012.8
20260507075053 16 0 0.0 0.0 0.00 3.53 0.05 96 1012.7
20260507074551 16 0 0.0 0.0 0.00 3.53 0.05 96 1012.4
20260507074052 16 0 0.0 0.0 0.00 3.53 0.05 96 1012.4
20260507073556 16 0 0.0 0.0 0.00 3.53 0.05 96 1012.4
20260507073054 16 0 0.0 0.0 0.00 3.53 0.05 96 1012.4
20260507072555 16 0 0.0 0.0 0.00 3.53 0.05 96 1012.3
20260507072052 16 0 0.0 0.0 0.00 3.53 0.05 96 1012.2
20260507071553 16 0 0.0 0.0 0.00 3.53 0.05 96 1011.9
20260507071052 16 0 0.0 0.0 0.00 3.53 0.05 96 1011.8
20260507070555 16 0 0.0 0.0 0.00 3.53 0.05 96 1012.3
20260507070105 16 0 0.0 0.0 0.00 3.53 0.05 96 1012.5
20260507065556 16 0 0.0 0.0 0.00 3.53 0.05 96 1012.5
20260507065053 16 0 0.0 0.0 0.00 3.53 0.05 96 1012.8
20260507064625 16 0 0.0 0.0 0.00 3.53 0.05 96 1012.9
20260507064056 16 0 0.0 0.0 0.00 3.53 0.05 96 1012.8
20260507063553 16 0 0.0 0.0 0.00 3.53 0.05 95 1012.8
20260507063053 16 0 0.0 0.0 0.00 3.53 0.05 95 1013.0
20260507062552 16 0 0.0 0.0 0.00 3.53 0.05 95 1013.1
20260507062053 17 0 0.0 0.0 0.00 3.53 0.05 95 1013.1
20260507061557 17 0 0.0 0.0 0.00 3.53 0.05 96 1013.0
20260507061052 17 0 0.0 0.0 0.00 3.53 0.05 96 1013.2
20260507060552 17 0 0.0 1.6 0.00 3.53 0.05 96 1013.2
20260507060112 17 0 0.0 1.6 0.00 3.53 0.05 96 1013.5
20260507055553 17 0 0.0 1.6 0.00 3.53 0.05 96 1013.6
20260507055052 17 0 0.0 1.6 0.00 3.53 0.05 96 1013.5
20260507054605 17 0 0.0 0.0 0.00 3.53 0.05 96 1013.4
20260507054053 17 0 0.0 0.0 0.00 3.53 0.05 96 1013.1
20260507053553 17 0 0.0 0.0 0.03 3.53 0.05 96 1012.9
20260507053108 17 0 0.0 0.0 0.03 3.53 0.05 96 1012.8
20260507052553 17 0 0.0 0.0 0.03 3.53 0.05 96 1012.9
20260507052053 17 0 0.0 0.0 0.03 3.53 0.05 96 1012.6
20260507051605 17 0 0.0 0.0 0.05 3.53 0.05 96 1012.6
20260507051052 17 0 0.0 0.0 0.05 3.53 0.05 95 1012.5
20260507050552 17 0 0.0 0.0 0.05 3.53 0.05 95 1012.4
20260507050056 17 0 0.0 1.6 0.05 3.53 0.05 96 1012.5
20260507045553 17 0 0.0 1.6 0.05 3.53 0.05 96 1012.7
20260507045053 17 0 0.0 0.0 0.05 3.53 0.05 96 1012.8
20260507044557 17 0 0.0 0.0 0.08 3.53 0.05 96 1013.3
20260507044056 17 0 0.0 1.6 0.08 3.53 0.05 96 1013.3
20260507043552 17 0 0.0 1.6 0.08 3.51 0.03 96 1013.5
20260507043057 17 0 0.0 1.6 0.10 3.51 0.03 96 1013.7
20260507042553 17 0 0.0 0.0 0.10 3.51 0.03 96 1013.6
20260507042057 17 0 0.0 0.0 0.10 3.51 0.03 96 1013.7
20260507041559 17 0 0.0 0.0 0.08 3.48 0.00 96 1013.7
20260507041058 17 0 0.0 0.0 0.08 3.48 0.00 96 1013.8
20260507040558 17 0 0.0 0.0 0.08 3.48 0.00 96 1013.3
20260507040059 17 0 0.0 0.0 0.08 3.48 0.00 96 1013.2
20260507035557 17 0 0.0 0.0 0.10 3.48 3.48 96 1013.2
20260507035058 17 0 0.0 0.0 0.20 3.48 3.48 96 1013.6
20260507034558 17 0 0.0 1.6 0.20 3.45 3.45 96 1013.6
20260507034058 17 0 0.0 1.6 0.20 3.45 3.45 96 1013.8
20260507033557 17 0 0.0 3.2 0.18 3.43 3.43 96 1014.0
20260507033058 17 0 0.0 4.8 0.15 3.40 3.40 95 1014.0
20260507032558 17 0 0.0 4.8 0.15 3.40 3.40 95 1013.6
20260507032056 17 0 0.0 0.0 0.15 3.40 3.40 95 1013.4
20260507031556 17 0 0.0 0.0 0.15 3.40 3.40 95 1013.7
20260507031057 17 0 0.0 0.0 0.15 3.40 3.40 95 1013.9
20260507030557 17 0 0.0 0.0 0.15 3.40 3.40 95 1013.7
20260507030058 17 0 0.0 0.0 0.15 3.40 3.40 95 1014.0
20260507025557 17 0 0.0 0.0 0.13 3.38 3.38 95 1014.3
20260507025057 17 0 0.0 0.0 0.03 3.28 3.28 95 1014.4
20260507024558 17 0 0.0 0.0 0.00 3.25 3.25 95 1014.2
20260507024058 17 0 0.0 0.0 0.00 3.25 3.25 95 1014.1
20260507023558 17 0 0.0 0.0 0.00 3.25 3.25 95 1013.7
20260507023057 17 0 0.0 0.0 0.00 3.25 3.25 95 1013.5
20260507022559 17 0 0.0 0.0 0.00 3.25 3.25 95 1013.5
20260507022100 17 0 0.0 0.0 0.00 3.25 3.25 95 1013.4
20260507021558 17 0 0.0 0.0 0.00 3.25 3.25 95 1013.6
20260507021057 17 0 0.0 0.0 0.00 3.25 3.25 95 1013.8
20260507020559 17 0 0.0 0.0 0.00 3.25 3.25 95 1013.9
20260507020113 17 0 0.0 3.2 0.00 3.25 3.25 95 1013.9
20260507015557 17 0 0.0 3.2 0.00 3.25 3.25 95 1013.7
20260507015058 17 0 0.0 0.0 0.00 3.25 3.25 95 1013.9
20260507014601 17 0 0.0 0.0 0.00 3.25 3.25 95 1013.8
20260507014057 17 0 0.0 0.0 0.00 3.25 3.25 95 1014.1
20260507013557 17 0 0.0 0.0 0.00 3.25 3.25 95 1014.2
20260507013057 17 0 0.0 0.0 0.00 3.25 3.25 95 1014.1
20260507012559 17 0 0.0 0.0 0.00 3.25 3.25 95 1014.2
20260507012059 17 0 0.0 0.0 0.00 3.25 3.25 95 1014.2
20260507011600 17 0 0.0 0.0 0.00 3.25 3.25 95 1014.1
20260507011052 17 0 0.0 0.0 0.03 3.25 3.25 95 1013.8
20260507010553 17 0 0.0 0.0 0.03 3.25 3.25 95 1013.6
20260507010109 17 0 0.0 0.0 0.03 3.25 3.25 95 1013.5
20260507005553 17 0 0.0 1.6 0.03 3.25 3.25 95 1013.5
20260507005052 17 0 0.0 1.6 0.03 3.25 3.25 95 1013.5
20260507004553 17 0 0.0 3.2 0.03 3.25 3.25 95 1013.6
20260507004053 17 0 0.0 3.2 0.05 3.25 3.25 95 1013.7
20260507003553 17 0 0.0 3.2 0.08 3.25 3.25 95 1013.6
20260507003058 17 0 0.0 0.0 0.08 3.25 3.25 95 1013.7
20260507002552 17 0 0.0 0.0 0.10 3.25 3.25 95 1013.6
20260507002053 17 0 0.0 3.2 0.10 3.25 3.25 95 1013.4
20260507001603 17 0 0.0 3.2 0.33 3.25 3.25 95 1013.2
20260507001052 17 0 0.0 3.2 0.48 3.23 3.23 95 1013.0
20260507000555 17 0 0.0 0.0 0.56 3.23 3.23 95 1014.2
20260507000052 17 0 0.0 0.0 0.66 3.23 3.23 95 1014.5
20260506235553 17 0 0.0 0.0 0.79 3.23 3.23 95 1014.2
20260506235052 17 0 0.0 0.0 0.81 3.23 3.23 95 1014.0
20260506234558 17 0 0.0 1.6 0.81 3.23 3.23 95 1013.9
20260506234052 17 0 0.0 1.6 0.79 3.20 3.20 95 1013.7
20260506233555 17 0 0.0 3.2 0.76 3.17 3.17 95 1013.8
20260506233059 17 0 0.0 3.2 0.79 3.17 3.17 95 1014.2
20260506232552 17 360 0.0 1.6 0.81 3.15 3.15 94 1014.0
20260506232053 17 0 0.0 1.6 0.84 3.12 3.12 94 1013.8
20260506231612 17 0 0.0 1.6 0.61 2.90 2.90 95 1014.3
20260506231053 17 0 0.0 1.6 0.46 2.74 2.74 95 1014.2
20260506230552 18 0 0.0 3.2 0.38 2.64 2.64 95 1013.5
20260506230110 18 0 0.0 3.2 0.30 2.54 2.54 95 1013.3
20260506225553 18 360 0.0 3.2 0.20 2.44 2.44 94 1014.0
20260506225052 18 360 0.0 1.6 0.18 2.41 2.41 95 1013.1
20260506224555 18 0 0.0 0.0 0.18 2.41 2.41 95 1013.3
20260506224052 18 0 0.0 0.0 0.18 2.41 2.41 95 1013.2
20260506223552 18 0 0.0 3.2 0.18 2.41 2.41 95 1013.5
20260506223100 18 0 0.0 3.2 0.15 2.39 2.39 94 1013.4
20260506222552 18 0 0.0 0.0 0.10 2.34 2.34 94 1013.6
20260506222054 18 0 0.0 3.2 0.05 2.29 2.29 94 1013.3
20260506221624 18 0 0.0 6.4 0.05 2.29 2.29 94 1013.2
20260506221052 18 0 0.0 6.4 0.05 2.29 2.29 94 1013.1
20260506220553 18 360 1.6 6.4 0.08 2.29 2.29 94 1012.5
20260506220115 18 0 0.0 3.2 0.03 2.24 2.24 94 1013.3
20260506215552 18 0 0.0 3.2 0.03 2.24 2.24 94 1013.0
20260506215052 18 0 0.0 3.2 0.03 2.24 2.24 94 1012.8
20260506214553 18 0 0.0 3.2 0.03 2.24 2.24 94 1012.8
20260506214053 18 0 0.0 3.2 0.03 2.24 2.24 94 1013.1
20260506213552 18 0 0.0 4.8 0.03 2.24 2.24 94 1012.9
20260506213110 18 360 0.0 4.8 0.03 2.24 2.24 94 1012.3
20260506212552 18 360 0.0 4.8 0.05 2.24 2.24 94 1012.5
20260506212052 18 0 0.0 0.0 0.13 2.24 2.24 94 1012.7
20260506211601 18 0 0.0 0.0 0.15 2.24 2.24 94 1012.8
20260506211052 18 0 0.0 0.0 0.20 2.24 2.24 94 1013.2
20260506210552 18 0 0.0 0.0 0.18 2.21 2.21 94 1013.4
20260506210105 18 0 0.0 0.0 0.18 2.21 2.21 94 1013.2
20260506205552 18 0 0.0 0.0 0.18 2.21 2.21 94 1013.3
20260506205052 18 0 0.0 0.0 0.18 2.21 2.21 94 1013.3
20260506204606 18 0 0.0 0.0 0.18 2.21 2.21 94 1013.5
20260506204052 18 0 0.0 3.2 0.18 2.21 2.21 94 1013.4
20260506203552 18 0 0.0 4.8 0.18 2.21 2.21 94 1013.5
20260506203056 18 0 0.0 4.8 0.18 2.21 2.21 94 1013.6
20260506202554 18 0 0.0 4.8 0.18 2.18 2.18 94 1013.6
20260506202054 18 360 1.6 8.0 0.10 2.11 2.11 94 1013.9
20260506201553 18 0 1.6 8.0 0.08 2.08 2.08 93 1013.8
20260506201053 18 360 1.6 9.7 0.05 2.03 2.03 93 1013.9
20260506200552 19 360 3.2 9.7 0.05 2.03 2.03 93 1013.7
20260506200052 19 360 1.6 6.4 0.08 2.03 2.03 93 1013.5
20260506195557 20 360 3.2 6.4 0.10 2.03 2.03 94 1013.4
20260506195052 20 360 0.0 3.2 0.13 2.03 2.03 95 1013.9
20260506194556 20 0 0.0 4.8 0.18 2.03 2.03 95 1013.6
20260506194053 20 0 1.6 4.8 0.23 2.03 2.03 95 1013.7
20260506193552 19 0 0.0 4.8 0.43 2.03 2.03 94 1013.8
20260506193055 19 360 1.6 4.8 0.64 2.03 2.03 94 1014.0
20260506192552 19 360 0.0 3.2 0.64 2.01 2.01 94 1014.5
20260506192052 19 0 0.0 6.4 0.69 2.01 2.01 94 1014.0
20260506191556 19 0 0.0 6.4 0.71 2.01 2.01 94 1013.6
20260506191053 19 0 1.6 6.4 0.71 1.98 1.98 94 1013.7
20260506190552 19 0 0.0 3.2 0.74 1.98 1.98 93 1013.3
20260506190057 19 360 0.0 3.2 0.71 1.96 1.96 93 1013.6
20260506185552 19 0 0.0 3.2 0.69 1.93 1.93 93 1013.7
20260506185053 20 0 0.0 3.2 0.66 1.91 1.91 93 1013.9
20260506184620 20 0 0.0 3.2 0.61 1.85 1.85 93 1014.0
20260506184053 20 360 0.0 1.6 0.53 1.78 1.78 93 1013.9
20260506183556 20 0 0.0 0.0 0.33 1.57 1.57 92 1015.0
20260506183057 20 0 0.0 0.0 0.15 1.40 1.40 92 1014.9
20260506182552 20 0 0.0 1.6 0.13 1.37 1.37 92 1014.9
20260506182051 20 0 0.0 1.6 0.08 1.32 1.32 92 1014.7
20260506181559 20 0 0.0 1.6 0.05 1.30 1.30 92 1014.9
20260506181053 20 0 0.0 3.2 0.03 1.27 1.27 91 1014.8
20260506180553 20 0 0.0 4.8 0.00 1.24 1.24 91 1014.9
20260506180058 20 0 0.0 8.0 0.00 1.24 1.24 91 1015.0
20260506175552 20 0 0.0 8.0 0.00 1.24 1.24 91 1014.7
20260506175050 20 360 1.6 9.7 0.00 1.24 1.24 91 1014.8
20260506174554 20 360 1.6 9.7 0.00 1.24 1.24 91 1014.6
20260506174114 20 360 3.2 9.7 0.00 1.24 1.24 91 1014.6
20260506173552 20 360 1.6 6.4 0.00 1.24 1.24 91 1014.6
20260506173053 20 360 1.6 6.4 0.00 1.24 1.24 91 1014.5
20260506172552 20 0 1.6 8.0 0.00 1.24 1.24 91 1014.6
20260506172052 20 360 1.6 8.0 0.00 1.24 1.24 91 1014.5
20260506171606 20 360 3.2 8.0 0.00 1.24 1.24 91 1014.5
20260506171054 20 360 1.6 6.4 0.00 1.24 1.24 91 1014.4
20260506170551 20 360 1.6 6.4 0.00 1.24 1.24 92 1014.3
20260506170058 20 360 1.6 9.7 0.00 1.24 1.24 92 1014.3
20260506165549 20 360 4.8 12.9 0.00 1.24 1.24 92 1014.3
20260506165053 20 360 4.8 12.9 0.00 1.24 1.24 92 1014.4
20260506164553 20 360 3.2 8.0 0.00 1.24 1.24 93 1014.2
20260506164053 20 360 3.2 8.0 0.00 1.24 1.24 93 1014.1
20260506163552 20 360 3.2 8.0 0.00 1.24 1.24 93 1014.1
20260506163052 20 360 3.2 8.0 0.00 1.24 1.24 94 1013.8
20260506162551 20 360 3.2 8.0 0.00 1.24 1.24 94 1014.0
20260506162055 20 360 3.2 6.4 0.00 1.24 1.24 94 1014.0
20260506161553 20 360 1.6 6.4 0.00 1.24 1.24 94 1014.1
20260506161052 20 360 1.6 8.0 0.00 1.24 1.24 94 1014.2
20260506160552 19 0 1.6 8.0 0.00 1.24 1.24 94 1014.1
20260506160108 19 360 1.6 8.0 0.00 1.24 1.24 94 1014.1
20260506155551 19 0 3.2 8.0 0.00 1.24 1.24 94 1014.2
20260506155052 19 360 3.2 6.4 0.03 1.24 1.24 94 1014.4
20260506154553 19 360 1.6 6.4 0.05 1.24 1.24 94 1014.5
20260506154055 19 360 0.0 4.8 0.05 1.24 1.24 95 1014.6
20260506153553 18 0 0.0 6.4 0.30 1.24 1.24 94 1014.6
20260506153053 18 0 0.0 6.4 0.51 1.24 1.24 95 1014.6
20260506152551 18 0 0.0 3.2 0.71 1.24 1.24 94 1014.5
20260506152049 18 0 0.0 3.2 0.89 1.24 1.24 94 1014.3
20260506151557 18 0 0.0 3.2 0.94 1.24 1.24 94 1014.6
20260506151051 18 0 0.0 3.2 0.99 1.24 1.24 94 1014.7
20260506150552 18 0 0.0 4.8 0.99 1.24 1.24 93 1014.8
20260506150055 18 0 0.0 6.4 1.02 1.24 1.24 93 1014.7
20260506145552 17 0 1.6 6.4 1.07 1.24 1.24 93 1014.1
20260506145052 17 0 0.0 3.2 1.07 1.22 1.22 93 1014.6
20260506144601 17 0 0.0 3.2 1.04 1.19 1.19 92 1015.4
20260506144052 17 0 0.0 4.8 1.02 1.17 1.17 92 1015.6
20260506143552 17 0 1.6 6.4 0.81 0.94 0.94 92 1016.2
20260506143054 18 0 0.0 9.7 0.58 0.71 0.71 92 1016.4
20260506142551 18 360 1.6 9.7 0.43 0.53 0.53 92 1016.3
20260506142051 18 360 4.8 9.7 0.30 0.36 0.36 92 1016.4
20260506141554 18 0 0.0 3.2 0.28 0.30 0.30 91 1015.8
20260506141052 17 0 0.0 1.6 0.23 0.25 0.25 91 1015.6
20260506140552 18 0 0.0 1.6 0.23 0.25 0.25 91 1015.5
20260506140053 18 0 0.0 1.6 0.23 0.23 0.23 91 1015.2
20260506135552 18 0 0.0 3.2 0.18 0.18 0.18 91 1015.2
20260506135053 18 0 0.0 3.2 0.15 0.15 0.15 91 1015.1
20260506134553 18 0 0.0 3.2 0.15 0.15 0.15 90 1014.9
20260506134050 18 360 0.0 4.8 0.15 0.15 0.15 90 1015.0
20260506133551 18 0 0.0 4.8 0.13 0.13 0.13 89 1014.8
20260506133053 18 360 0.0 4.8 0.13 0.13 0.13 89 1014.8
20260506132554 18 0 0.0 4.8 0.10 0.10 0.10 88 1014.8
20260506132055 18 0 1.6 4.8 0.05 0.05 0.05 87 1014.7
20260506131612 18 0 1.6 4.8 0.03 0.03 0.03 86 1014.6
20260506131049 18 360 0.0 4.8 0.03 0.03 0.03 85 1014.4
20260506130549 19 0 0.0 6.4 0.03 0.03 0.03 85 1014.2
20260506130057 19 360 3.2 6.4 0.00 0.00 0.00 84 1014.2
20260506125551 19 360 1.6 6.4 0.00 0.00 0.00 83 1014.3
20260506125049 19 360 3.2 6.4 0.00 0.00 0.00 82 1014.0
20260506124553 19 360 1.6 4.8 0.00 0.00 0.00 82 1014.0
20260506124052 19 360 0.0 6.4 0.00 0.00 0.00 82 1013.8
20260506123551 19 360 1.6 6.4 0.00 0.00 0.00 82 1013.8
20260506123055 19 360 0.0 4.8 0.00 0.00 0.00 82 1013.7
20260506122552 19 0 0.0 3.2 0.00 0.00 0.00 82 1013.7
20260506122051 19 360 0.0 3.2 0.00 0.00 0.00 82 1013.6
20260506121557 19 360 0.0 4.8 0.00 0.00 0.00 82 1013.4
20260506121052 19 360 0.0 4.8 0.00 0.00 0.00 82 1013.6
20260506120552 19 0 0.0 3.2 0.00 0.00 0.00 82 1013.3
20260506120055 19 0 0.0 3.2 0.00 0.00 0.00 82 1013.3
20260506115550 19 0 0.0 4.8 0.00 0.00 0.00 82 1013.3
20260506115052 19 0 0.0 4.8 0.00 0.00 0.00 82 1013.3
20260506114555 19 0 0.0 3.2 0.00 0.00 0.00 82 1013.3
20260506114050 19 0 0.0 4.8 0.00 0.00 0.00 81 1013.3
20260506113551 19 0 0.0 6.4 0.00 0.00 0.00 81 1013.1